Timeline UpdatesTrip UpdatesNews PostsPvt PostsTravel TipsAdmin PostsConv PostsFollowed PostsChat RequestsBlog PostsPNR Posts

Disclaimer
Search
 
 
Fri Apr 18, 2014 14:52:39 ISTHomeTrainsΣChainsAtlasPNRForumGalleryNewsFAQTripsMembersLoginFeedback
No Recent News for this Train
Other Trains in the News **new
Latest...
12722 Slip is Pair of this Link service officialy known as "Link Dakshin Express".
Mon May 21, 2012 (01:50PM)
⇐ Return Journey: Train# 12862

12861/Visakhapatnam-H.Nizamuddin Link SF Express

Oct 08 2013 (11:52PM)
Change Departure Station:
Change Arrival Station:
Post a Train Travel TipPost a Train Travel Tip **new
Post a Comment/Question/Picture/VideoPost a Comment/Question/Picture/Video
Inaugural Run
Tue Oct 01, 1985
Pantry/Catering
✕ NO Pantry Car
✓ Catering Avbl
Loco/Rake Reversals
BZA/Vijayawada Junction (10); KZJ/Kazipet Junction (3);
RSA - Rake Sharing
Rake/Coach Composition
LOCO(LGD-WAP4)-SLR-S4-S5-S6-B1-A1-GS-GS-GS-GS-SLR (Loco Reversal at BZA); From KZJ to NZM, 12721 Dakshin Exp; LOCO(LGD-WAP7)-SLR-S4-S5-S6-A1-B1-SLRD-A2-B2-PC-S8-S9-S10-S11-S12-S13-S14-GS-GS-GS-GS-SLR
Loco
WAP4
News    PNR    Forum    Time-Table    Availability    Fare Chart    Map    Arr/Dep History    Trips    Gallery    ΣChains    X/O    Timeline    
Travel Time: 11h 34m    19 halts    Distance: 660 km    Avg Speed: 57 km/hr
Type: SuperFast
Zone: ECoR/East Coast
Departs @ 15:10 (Avg on time)
Platform# 5
SMTWTFS
Visakhapatnam Junction/VSKP 
Arrives @ 02:44 +1 night
Platform# 1
SMTWTFS
Ramagundam/RDM 

19 halts. 104 intermediate Stations between Visakhapatnam Junction and Ramagundam

Show ALL intermediate Stations  Show Old Time-Table

#CodeStation NameX/OArrivesAvgDepartsAvgHaltPFDay#KmSpeedElevZoneAddress
1VSKP»Visakhapatnam Junction (8)»  -15:10+0510.03411mECoRVishakhapatnam 530001, Andhra Pradesh
2DVDDuvvada (4)X  15:39-115:40+21m1116.36846mECoRVishakhapatnam District, Andhra Pradesh
3AKPAnakapalle (3)X  15:54+615:55+71m2132.38930mSCRAnakapalle ph.no . 08924-221698, Andhra Pradesh
4TUNITuni (2)  16:38+1316:39+141m1196.17124mSCRTuni ph.no. 08854-252172, Andhra Pradesh
5ANVAnnavaram (3)X  16:53+1416:54+141m11112.78227mSCREast Godavari District, Andhra Pradesh
6SLOSamalkot Junction (3)X  17:21+1717:22+181m31149.65618mSCRKakinada ph.no.0884-2328824, Andhra Pradesh
7RJYRajahmundry (3)X  18:16+1718:18+222m11199.85823mSCRRajahmundry ph.no. 0883-2420541, Andhra Pradesh
8NDDNidadavolu Junction (3)X  18:41+2918:42+301m31221.97120mSCRNidadavolu jtn ph.no. 08813-210325, Andhra Pradesh
9TDDTadepalligudem (3)  18:59+3019:00+311m31241.98718mSCRTadepalligudem, Andhra Pradesh
10EEEluru (3)  19:33+3419:34+351m31289.73519mSCREluru Ph.no. 08812 226401., Andhra Pradesh
11BZAVijayawada Junction (10)X21:15+721:30+1015m71349.16124mSCRVijayawada 520001, Andhra Pradesh
12MDRMadhira (2)  22:25+2322:26+231m21404.69061mSCRK.Ponnavaram, Andhra Pradesh
13KMTKhammam (2)X  22:56+2722:58+262m21449.586118mSCRKhammam 507001, Andhra Pradesh
14DKJDornakal Junction (3)X  23:14+3123:15+311m11472.567153mSCRWarangal District, Andhra Pradesh
15MABDMahbubabad (2)  23:37+2723:38+271m21496.9149200mSCRMahbubabad, Andhra Pradesh
16KDMKesamudram (2)X  23:44+3923:45+391m21511.859223mSCRKesamudram. Ph : 08719 - 250360, Andhra Pradesh
17WLWarangal (3)X  00:31+2100:33+202m22557.023271mSCRWarangal., Andhra Pradesh
18KZJKazipet Junction (3)X↵¶01:00+1301:30+030m22567.289292mSCRKazipet, Andhra Pradesh
19JMKTJamikunta (2)X  01:54-01:55-1m12602.891236mSCRJammikunta, Andhra Pradesh
20PDPLPeddapalli Junction (2)O  02:21-02:22-1m12642.348228mSCRPeddapalli, Andhra Pradesh
21RDM•Ramagundam (3)•O  02:44-02:45-1m12659.859170mSCRKarimnagar Dist. Ph : 08728 - 255237, Andhra Pradesh
22MCIManchiryal (3)X  02:59-03:00-1m12673.563159mSCRMancherial. Ph : 08736 - 254445, Andhra Pradesh
23BPABellampalli (3)X  03:19-03:20-1m12693.459205mSCRBelampalli Tel:.08735 223298, Andhra Pradesh
24SKZRSirpur Kaghaznagar (3)X  03:59-04:00-1m12731.952181mSCRKaghaznagar, Andhra Pradesh
25BPQBalharshah Junction (5)X  05:20-05:30-10m--2801.643188mCRBallarpur. Ph : 07172 - 240341, Maharashtra
26CDChandrapur Maharashtra  05:49-05:50-1m--2815.463194mCRChandrapur 442401, Maharashtra
27BUXBhandak (5)  06:13-06:14-1m--2839.763207mCRChandrapur, Maharashtra
28WRRWaroraX  06:35-06:36-1m--2861.878214mCRWarora, Maharashtra
29HGTHinganghat  07:06-07:07-1m--2900.844228mCRHinganghat, Maharashtra
30SEGMSewagram Junction (5)  07:52-07:53-1m--2934.076264mCRWardha, Maharashtra
31SNISindi (2)  08:16-08:17-1m--2963.377258mCRWardha, Maharashtra
32AJNIAjni (3)  08:51-08:52-1m--21007.28310mCRNagpur 440003, Maharashtra
33NGPNagpur Junction (9)X  09:15-09:25-10m121010.270314mCRNagpur 440001, Maharashtra
34KATLKatol (2)  10:17-10:18-1m--21071.060415mCRKatol, Maharashtra
35NRKRNarkher Junction (3)X  10:43-10:44-1m--21096.261411mCRNarkher, Maharashtra
36PARPandhurna (2)  11:02-11:03-1m--21114.560481mCRDistt: Chhindwara, Madhya Pradesh
37MTYMultai (2)X  11:44-11:45-1m--21155.365762mCRMultai, Madhya Pradesh
38AMLAAmla Junction (5)O  12:06-12:08-2m--21178.269733mCRAmla Distt. Betul, Madhya Pradesh
39BZUBetul (3)X  12:28-12:29-1m--21201.151644mCRBetul, Madhya Pradesh
40GDYAGhoradongri (3)X  13:11-13:12-1m--21237.045410mCRBetul, Madhya Pradesh
41ETItarsi Junction (7)  14:45-14:55-10m--21307.357329mWCRItarsi 461111, Madhya Pradesh
42HBDHoshangabad (4)  15:14-15:15-1m--21325.463308mWCRHoshangabad, Madhya Pradesh
43HBJBhopal HabibGanj (5)X  16:19-16:20-1m--21392.815496mWCRHabibGanj, Madhya Pradesh
44BPLBhopal Junction (6)X  16:45-16:50-5m221399.097497mWCRBhopal, Madhya Pradesh
45BHSVidisha (3)  17:23-17:24-1m121452.679432mWCRVidisha, Madhya Pradesh
46BAQGanj Basoda (4)X  17:54-17:55-1m121491.959416mWCRVidisha, Madhya Pradesh
47MABAMandi Bamora (3)X  18:24-18:25-1m121520.430413mWCRState Highway 14, Madhya Pradesh
48BINABina Junction (5)X  19:00-19:05-5m321537.671414mWCRJn Pt - KATNI/GUNA/ BPL/JHS, Madhya Pradesh
49LARLalitpur (3)X  19:58-19:59-1m321600.588373mNCRLalitpur, Uttar Pradesh
50BABBabina (3)X  20:43-20:44-1m221665.343285mNCRBabina, Uttar Pradesh
51JHSJhansi Junction (7)X  21:20-21:30-10m--21690.876259mNCRJhansi, Uttar Pradesh
52GWLGwalior Junction (4)  22:47-22:52-5m221788.589214mNCRGwalior, Madhya Pradesh
53MRAMorena (3)  23:18-23:19-1m221827.153176mNCRMorena, Madhya Pradesh
54AGCAgra Cantt. (6)XO  00:49-00:50-1m231906.669174mNCRAgra, Uttar Pradesh
55MTJMathura Junction (10)X  01:37-01:38-1m231960.262179mNCRMathura, Uttar Pradesh
56BVHBallabgarh (5)O  03:19-03:20-1m332065.340203mNRFaridabad, Haryana
57FDBFaridabad (4)  03:32-03:33-1m232073.446206mNRFaridabad, Haryana
58NZMDelhi Hazrat Nizamuddin (7)  04:00--632094.2-209mNRNizamuddin East/Sarai KaleKhan Bus Terminal, Delhi NCT
Scroll to Top
Scroll to Bottom